| time (UTC) | temp F | wind direction | speed MPH | gust MPH | rain 1hr in | rain 24hr in | rain mn in | humidity % | barometer mb |
| 20260510020029 | 53 | 345 | 6.0 | 9.0 | 0.00 | 0.00 | 0.00 | 34 | 1013.7 |
| 20260510014527 | 54 | 338 | 7.0 | 9.0 | 0.00 | 0.00 | 0.00 | 33 | 1013.4 |
| 20260510013025 | 55 | 329 | 7.0 | 9.0 | 0.00 | 0.00 | 0.00 | 33 | 1013.1 |
| 20260510011523 | 55 | 335 | 8.0 | 13.0 | 0.00 | 0.00 | 0.00 | 34 | 1012.9 |
| 20260510010021 | 56 | 342 | 12.0 | 15.0 | 0.00 | 0.00 | 0.00 | 33 | 1012.5 |
| 20260510004519 | 57 | 348 | 10.0 | 16.0 | 0.00 | 0.00 | 0.00 | 32 | 1012.4 |
| 20260510003019 | 58 | 347 | 12.0 | 18.0 | 0.00 | 0.00 | 0.00 | 31 | 1012.2 |
| 20260510001515 | 58 | 339 | 13.0 | 17.0 | 0.00 | 0.00 | 0.00 | 31 | 1012.1 |
| 20260510000014 | 59 | 328 | 11.0 | 19.0 | 0.00 | 0.00 | 0.00 | 31 | 1011.8 |
| 20260509234522 | 59 | 345 | 12.0 | 19.0 | 0.00 | 0.00 | 0.00 | 30 | 1011.7 |
| 20260509233010 | 60 | 350 | 10.0 | 21.0 | 0.00 | 0.00 | 0.00 | 29 | 1011.4 |
| 20260509231509 | 60 | 337 | 12.0 | 22.0 | 0.00 | 0.00 | 0.00 | 29 | 1011.3 |
| 20260509230007 | 60 | 349 | 12.0 | 21.0 | 0.00 | 0.00 | 0.00 | 29 | 1011.1 |
| 20260509224506 | 60 | 331 | 11.0 | 19.0 | 0.00 | 0.00 | 0.00 | 28 | 1010.9 |
| 20260509223003 | 61 | 323 | 12.0 | 20.0 | 0.00 | 0.00 | 0.00 | 28 | 1010.7 |
| 20260509221502 | 61 | 327 | 12.0 | 17.0 | 0.00 | 0.00 | 0.00 | 29 | 1010.4 |
| 20260509214559 | 61 | 345 | 15.0 | 22.0 | 0.00 | 0.00 | 0.00 | 28 | 1010.1 |
| 20260509213057 | 60 | 330 | 10.0 | 23.0 | 0.00 | 0.00 | 0.00 | 31 | 1010.0 |
| 20260509211555 | 61 | 350 | 13.0 | 19.0 | 0.00 | 0.00 | 0.00 | 31 | 1009.8 |
| 20260509210105 | 60 | 345 | 14.0 | 21.0 | 0.00 | 0.00 | 0.00 | 31 | 1009.7 |
| 20260509204557 | 61 | 327 | 12.0 | 23.0 | 0.00 | 0.00 | 0.00 | 30 | 1009.6 |
| 20260509203051 | 60 | 345 | 13.0 | 22.0 | 0.00 | 0.00 | 0.00 | 33 | 1009.6 |
| 20260509201550 | 61 | 345 | 16.0 | 21.0 | 0.00 | 0.00 | 0.00 | 31 | 1009.4 |
| 20260509200051 | 60 | 342 | 19.0 | 23.0 | 0.00 | 0.00 | 0.00 | 32 | 1009.3 |
| 20260509194547 | 60 | 314 | 9.0 | 23.0 | 0.00 | 0.00 | 0.00 | 34 | 1009.1 |
| 20260509193044 | 60 | 346 | 16.0 | 23.0 | 0.00 | 0.00 | 0.00 | 33 | 1009.0 |
| 20260509191544 | 61 | 338 | 13.0 | 24.0 | 0.00 | 0.00 | 0.00 | 33 | 1008.9 |
| 20260509190052 | 60 | 348 | 19.0 | 24.0 | 0.00 | 0.00 | 0.00 | 35 | 1008.5 |
| 20260509184603 | 61 | 355 | 19.0 | 25.0 | 0.00 | 0.00 | 0.00 | 36 | 1008.7 |
| 20260509183038 | 60 | 338 | 13.0 | 22.0 | 0.00 | 0.00 | 0.00 | 39 | 1008.5 |
| 20260509181544 | 59 | 330 | 10.0 | 21.0 | 0.00 | 0.00 | 0.00 | 40 | 1008.5 |
| 20260509180036 | 58 | 338 | 7.0 | 24.0 | 0.00 | 0.00 | 0.00 | 40 | 1008.4 |
| 20260509174537 | 59 | 341 | 14.0 | 20.0 | 0.00 | 0.00 | 0.00 | 40 | 1008.1 |
| 20260509173035 | 59 | 328 | 14.0 | 21.0 | 0.00 | 0.00 | 0.00 | 43 | 1008.0 |
| 20260509171533 | 58 | 339 | 14.0 | 22.0 | 0.00 | 0.00 | 0.00 | 44 | 1008.1 |
| 20260509170032 | 58 | 338 | 11.0 | 21.0 | 0.00 | 0.00 | 0.00 | 48 | 1008.2 |
| 20260509164530 | 58 | 333 | 16.0 | 22.0 | 0.00 | 0.00 | 0.00 | 47 | 1008.1 |
| 20260509163036 | 57 | 339 | 11.0 | 20.0 | 0.00 | 0.00 | 0.00 | 54 | 1007.8 |
| 20260509161526 | 57 | 358 | 11.0 | 20.0 | 0.00 | 0.00 | 0.00 | 56 | 1007.7 |
| 20260509160026 | 56 | 343 | 18.0 | 22.0 | 0.00 | 0.00 | 0.00 | 56 | 1007.5 |
| 20260509154523 | 56 | 340 | 16.0 | 20.0 | 0.00 | 0.00 | 0.00 | 60 | 1007.4 |
| 20260509153023 | 56 | 346 | 15.0 | 23.0 | 0.00 | 0.00 | 0.00 | 62 | 1007.2 |
| 20260509151520 | 56 | 340 | 12.0 | 20.0 | 0.00 | 0.00 | 0.00 | 64 | 1007.2 |
| 20260509150024 | 55 | 336 | 12.0 | 19.0 | 0.00 | 0.00 | 0.00 | 65 | 1007.0 |
| 20260509144519 | 55 | 339 | 15.0 | 19.0 | 0.00 | 0.00 | 0.00 | 68 | 1006.8 |
| 20260509143015 | 55 | 338 | 13.0 | 19.0 | 0.00 | 0.00 | 0.00 | 69 | 1006.5 |
| 20260509141528 | 55 | 321 | 10.0 | 14.0 | 0.00 | 0.00 | 0.00 | 69 | 1006.4 |
| 20260509140011 | 55 | 331 | 12.0 | 18.0 | 0.00 | 0.00 | 0.00 | 70 | 1006.3 |
| 20260509134512 | 54 | 316 | 10.0 | 15.0 | 0.00 | 0.00 | 0.00 | 69 | 1006.2 |
| 20260509133006 | 54 | 331 | 10.0 | 20.0 | 0.00 | 0.00 | 0.00 | 67 | 1005.7 |
| 20260509131508 | 54 | 330 | 9.0 | 13.0 | 0.00 | 0.00 | 0.00 | 64 | 1005.7 |
| 20260509130003 | 52 | 316 | 4.0 | 5.0 | 0.00 | 0.00 | 0.00 | 62 | 1005.6 |
| 20260509124500 | 51 | 283 | 3.0 | 4.0 | 0.00 | 0.00 | 0.00 | 60 | 1005.8 |
| 20260509123101 | 51 | 285 | 1.0 | 3.0 | 0.00 | 0.00 | 0.00 | 60 | 1005.1 |
| 20260509121558 | 50 | 297 | 2.0 | 4.0 | 0.00 | 0.00 | 0.00 | 60 | 1005.4 |
| 20260509120057 | 50 | 328 | 3.0 | 5.0 | 0.00 | 0.00 | 0.00 | 59 | 1005.4 |
| 20260509114556 | 50 | 329 | 4.0 | 7.0 | 0.00 | 0.00 | 0.00 | 57 | 1005.1 |
| 20260509113118 | 51 | 323 | 7.0 | 9.0 | 0.00 | 0.00 | 0.00 | 56 | 1004.8 |
| 20260509111600 | 51 | 333 | 8.0 | 11.0 | 0.00 | 0.00 | 0.00 | 55 | 1004.5 |
| 20260509110049 | 50 | 311 | 4.0 | 5.0 | 0.00 | 0.00 | 0.00 | 57 | 1004.1 |
| 20260509104557 | 51 | 293 | 4.0 | 6.0 | 0.00 | 0.00 | 0.00 | 54 | 1003.6 |
| 20260509103056 | 51 | 320 | 7.0 | 16.0 | 0.00 | 0.00 | 0.00 | 54 | 1003.9 |
| 20260509101547 | 47 | 219 | 5.0 | 8.0 | 0.00 | 0.00 | 0.00 | 57 | 1002.6 |
| 20260509100105 | 47 | 231 | 5.0 | 7.0 | 0.00 | 0.00 | 0.00 | 57 | 1002.6 |
| 20260509094551 | 47 | 224 | 5.0 | 7.0 | 0.00 | 0.00 | 0.00 | 57 | 1002.7 |
| 20260509093045 | 46 | 224 | 5.0 | 7.0 | 0.00 | 0.00 | 0.00 | 58 | 1002.8 |
| 20260509091551 | 46 | 231 | 6.0 | 7.0 | 0.00 | 0.00 | 0.00 | 59 | 1002.9 |
| 20260509090042 | 46 | 226 | 6.0 | 8.0 | 0.00 | 0.00 | 0.00 | 58 | 1003.0 |
| 20260509084540 | 46 | 226 | 6.0 | 7.0 | 0.00 | 0.00 | 0.00 | 57 | 1003.0 |
| 20260509083043 | 47 | 230 | 5.0 | 7.0 | 0.00 | 0.00 | 0.00 | 56 | 1003.0 |
| 20260509081535 | 48 | 211 | 7.0 | 9.0 | 0.00 | 0.00 | 0.00 | 54 | 1002.9 |
| 20260509080044 | 48 | 237 | 5.0 | 7.0 | 0.00 | 0.00 | 0.00 | 55 | 1002.7 |
| 20260509074530 | 49 | 233 | 6.0 | 9.0 | 0.00 | 0.00 | 0.00 | 52 | 1003.1 |
| 20260509073026 | 49 | 233 | 6.0 | 8.0 | 0.00 | 0.00 | 0.00 | 52 | 1003.3 |
| 20260509071523 | 50 | 233 | 4.0 | 5.0 | 0.00 | 0.00 | 0.00 | 51 | 1003.4 |
| 20260509070023 | 50 | 231 | 4.0 | 6.0 | 0.00 | 0.00 | 0.00 | 51 | 1003.6 |
| 20260509064528 | 50 | 233 | 4.0 | 6.0 | 0.00 | 0.00 | 0.00 | 50 | 1003.5 |
| 20260509063017 | 51 | 237 | 3.0 | 6.0 | 0.00 | 0.00 | 0.00 | 47 | 1003.8 |
| 20260509061532 | 54 | 322 | 2.0 | 3.0 | 0.00 | 0.00 | 0.00 | 45 | 1004.0 |
| 20260509060012 | 54 | 322 | 2.0 | 3.0 | 0.00 | 0.00 | 0.00 | 44 | 1004.2 |
| 20260509054511 | 54 | 322 | 2.0 | 3.0 | 0.00 | 0.00 | 0.00 | 43 | 1004.1 |
| 20260509053021 | 55 | 323 | 2.0 | 4.0 | 0.00 | 0.00 | 0.00 | 44 | 1004.1 |
| 20260509051505 | 56 | 325 | 2.0 | 3.0 | 0.00 | 0.00 | 0.00 | 43 | 1004.2 |
| 20260509050002 | 57 | 326 | 3.0 | 5.0 | 0.00 | 0.00 | 0.00 | 40 | 1004.2 |
| 20260509044501 | 58 | 331 | 4.0 | 5.0 | 0.00 | 0.00 | 0.00 | 40 | 1004.3 |
| 20260509043104 | 59 | 331 | 3.0 | 7.0 | 0.00 | 0.00 | 0.00 | 39 | 1004.2 |
| 20260509041559 | 59 | 333 | 5.0 | 7.0 | 0.00 | 0.00 | 0.00 | 38 | 1004.2 |
| 20260509040100 | 60 | 336 | 6.0 | 8.0 | 0.00 | 0.00 | 0.00 | 37 | 1004.4 |
| 20260509034604 | 60 | 331 | 4.0 | 6.0 | 0.00 | 0.00 | 0.00 | 37 | 1004.3 |
| 20260509033058 | 61 | 330 | 5.0 | 9.0 | 0.00 | 0.00 | 0.00 | 35 | 1004.2 |
| 20260509031557 | 61 | 330 | 5.0 | 8.0 | 0.00 | 0.00 | 0.00 | 35 | 1004.1 |
| 20260509030056 | 62 | 330 | 4.0 | 7.0 | 0.00 | 0.00 | 0.00 | 35 | 1003.9 |
| 20260509024556 | 62 | 338 | 6.0 | 9.0 | 0.00 | 0.00 | 0.00 | 35 | 1003.8 |
| 20260509023055 | 63 | 335 | 5.0 | 8.0 | 0.00 | 0.00 | 0.00 | 35 | 1003.5 |
| 20260509021554 | 64 | 326 | 5.0 | 8.0 | 0.00 | 0.00 | 0.00 | 35 | 1003.3 |